Wind_Speed
10 10 10 10 10 11 11 11 12 12 12 12 12 12 13 14 16 16 17 19 20 16 12 12 10 10 13 11 12 12 13 6 9 11 9 10 11 12 13 14 10 8 5 5 9
12 11 11 11 11 11 11 12 11 12 11 10 11 11 11 12 14 15 16 17 18 15 13 11 10 4 15 14 20 17 6 7 10 8 9 10 11 11 13 15 13 8 7 6 14
14 14 13 13 13 12 12 12 12 12 11 11 11 10 10 10 11 12 13 14 15 12 9 10 11 5 31 24 21 17 14 12 8 9 8 6 6 6 12 14 15 12 8 11 15
17 16 15 15 14 14 14 14 14 13 12 12 11 10 9 9 9 9 10 11 11 12 9 13 19 23 28 19 24 24 13 11 10 11 7 3 7 7 10 13 14 13 10 6 13
19 19 18 17 17 17 17 17 17 16 15 14 12 11 10 8 7 6 6 7 9 10 7 10 15 23 21 15 21 24 21 12 11 11 6 6 5 6 10 11 13 13 11 5 9
21 21 21 20 20 21 20 21 20 19 18 16 14 12 10 8 6 3 3 3 5 7 7 10 15 17 22 17 18 15 20 19 17 13 9 6 6 5 9 9 11 14 12 7 6
24 24 24 24 24 24 24 23 22 22 20 19 16 14 11 8 6 3 2 1 2 5 4 11 13 7 21 15 12 15 7 25 22 16 7 6 7 8 7 9 8 12 14 11 6
25 26 27 27 27 27 27 26 25 24 23 21 18 16 13 10 8 6 5 3 2 3 6 8 10 10 15 17 3 6 13 20 21 18 11 7 9 13 10 9 7 8 10 11 10
29 29 30 30 30 30 29 28 27 25 24 23 21 19 14 12 9 9 8 7 5 5 8 9 8 7 5 16 21 7 10 15 19 19 12 8 16 17 13 10 7 6 6 8 8
31 31 32 31 31 31 29 28 26 25 24 23 23 21 18 14 11 11 11 10 9 7 10 11 8 7 18 16 16 9 1 5 18 19 20 9 19 13 16 12 8 5 4 6 7
27 26 26 26 25 24 23 24 24 24 22 24 23 24 15 16 13 12 13 13 13 11 12 15 11 13 6 15 3 7 6 10 20 15 6 13 11 15 15 10 11 6 3 4 7
19 19 18 17 17 18 19 20 18 20 20 22 22 22 17 19 14 13 15 15 13 13 15 17 9 7 11 8 4 5 8 6 9 17 5 12 10 11 13 12 8 6 3 1 3
10 12 15 18 19 18 20 18 17 16 19 20 22 22 22 21 16 15 16 16 15 15 14 15 6 14 0 4 4 7 9 10 2 14 15 10 4 6 10 10 7 3 1 0 2
12 15 16 17 17 18 15 13 12 12 13 16 19 22 21 19 18 16 16 15 14 15 14 11 15 7 14 9 8 6 20 16 7 9 20 8 12 6 6 10 9 3 2 1 2
12 13 13 16 16 13 9 9 10 9 4 17 17 21 19 18 19 14 15 14 15 14 13 8 12 17 19 12 9 14 8 5 2 8 9 22 14 11 3 13 13 9 4 4 0
7 10 13 13 11 7 4 8 12 14 3 11 9 15 18 20 14 19 17 15 14 14 14 20 16 17 14 10 19 12 6 7 12 11 15 26 18 15 11 13 17 15 6 2 3
9 9 10 7 6 8 11 14 18 5 7 13 9 12 13 15 12 13 14 12 10 6 4 6 9 12 13 17 8 10 7 11 10 15 14 18 16 15 7 21 17 12 9 3 4
10 7 7 8 14 18 21 14 15 11 3 0 4 11 12 9 8 12 12 12 13 9 5 6 9 15 13 13 10 7 8 10 14 14 4 19 8 11 15 14 5 6 8 3 3
11 8 6 8 15 20 17 10 10 6 8 8 9 10 10 11 8 9 9 6 5 9 13 2 10 10 10 13 13 8 6 10 12 3 16 16 26 19 28 12 8 8 6 6 2
10 9 9 9 14 14 4 10 5 11 15 8 5 8 10 10 6 9 8 15 17 17 23 14 4 12 13 12 13 13 13 4 4 9 16 17 23 33 8 7 5 11 7 2 6
8 6 10 9 12 13 13 7 6 12 21 3 12 9 6 7 8 7 9 20 18 15 15 20 11 10 14 3 5 4 3 11 2 10 12 14 15 0 8 8 13 12 9 11 5
3 5 6 7 6 12 4 3 10 3 15 10 15 7 11 11 9 8 11 22 13 15 13 15 14 11 10 7 14 17 9 7 6 14 12 17 5 7 5 15 17 16 12 18 5
0 5 4 6 17 8 2 4 8 8 13 15 16 20 23 9 15 18 15 29 20 16 17 21 20 7 6 12 7 17 8 11 11 8 6 9 22 17 15 17 16 20 20 12 11
3 3 4 2 9 7 7 7 4 7 8 9 9 9 8 3 13 16 15 18 17 14 14 16 23 8 18 18 9 14 11 20 15 6 16 12 31 2 11 16 22 26 25 20 17
2 3 5 4 7 5 5 4 6 6 8 9 9 12 11 11 6 6 11 11 14 15 13 16 12 10 6 7 7 10 9 7 15 17 8 22 27 24 18 15 19 23 25 24 24
1 3 4 5 6 5 7 7 7 5 7 7 12 8 10 15 19 21 16 15 13 14 17 18 10 14 24 8 11 10 8 14 14 14 15 15 30 40 36 29 29 32 33 29 27
4 2 3 5 7 10 11 9 11 9 9 9 9 9 12 6 9 13 11 14 15 11 12 17 19 17 14 9 11 15 13 16 14 13 18 19 32 47 42 22 23 21 24 30 32
Wind_Direction
317 323 327 333 339 343 346 349 351 355 8 11 19 19 14 18 27 31 30 27 29 38 49 58 65 69 74 46 7 344 45 71 101 70 87 89 71 52 42 35 32 26 90 190 143
307 310 312 317 323 328 332 338 342 345 351 358 1 9 6 9 21 26 31 27 29 43 60 76 71 128 161 136 48 36 11 59 30 98 104 83 67 48 44 37 41 42 93 165 140
295 298 301 305 310 314 319 323 328 331 335 342 345 349 350 355 13 18 33 27 30 47 59 81 79 45 44 41 27 22 2 77 33 43 42 75 68 73 47 43 38 52 90 136 155
288 290 292 296 299 301 305 309 312 314 318 322 328 330 330 337 356 16 31 30 27 67 79 77 36 63 45 42 13 37 43 52 25 18 36 90 90 74 55 48 48 55 74 101 148
284 286 287 289 293 294 296 298 298 299 302 305 310 311 314 315 327 12 25 30 26 76 91 76 89 66 29 14 37 33 48 54 45 27 40 75 72 65 65 54 63 64 76 104 149
282 283 283 285 285 286 287 289 287 286 288 289 291 292 297 300 302 340 8 21 31 53 105 78 73 85 86 42 40 32 39 43 34 26 51 69 82 83 79 62 72 80 83 98 139
279 280 280 281 281 282 282 282 281 281 278 276 276 277 280 277 266 260 263 335 45 53 95 102 74 63 97 92 30 21 41 21 27 17 29 59 81 84 87 80 72 85 92 99 114
279 281 282 283 283 281 280 279 277 273 270 268 266 265 266 265 255 233 211 213 168 94 124 99 85 89 98 128 218 78 19 6 15 357 60 113 75 69 69 86 94 91 96 105 114
281 283 283 284 283 282 280 278 275 270 262 258 258 256 259 255 243 225 210 203 190 156 140 127 99 88 234 82 51 41 30 351 338 359 37 141 78 53 46 66 109 122 120 118 124
281 282 283 283 283 281 280 277 273 265 256 250 245 245 237 241 235 220 208 205 195 181 154 146 151 134 286 64 63 95 340 352 322 356 9 33 45 35 44 53 81 114 148 143 138
280 282 283 284 283 282 277 271 264 258 253 246 242 241 235 240 231 217 210 207 197 188 167 155 175 249 33 49 15 74 75 321 315 3 44 46 45 38 41 43 65 63 123 168 168
282 284 283 281 281 284 282 276 262 250 241 240 233 232 228 227 222 213 209 209 203 198 177 174 174 292 91 94 162 85 0 261 304 346 351 74 1 35 42 42 52 48 53 164 208
278 282 288 289 288 285 284 266 250 242 238 232 226 225 221 218 215 213 208 207 201 204 197 156 231 274 245 218 84 337 245 253 291 276 32 32 59 318 33 53 52 45 80 62 244
284 288 290 295 293 290 276 250 231 225 234 231 226 224 218 214 213 211 208 203 204 196 211 182 235 265 231 197 139 286 260 273 275 284 318 287 353 342 63 59 52 62 155 178 294
286 296 305 305 300 288 261 224 198 188 108 247 222 220 210 203 220 211 208 198 196 197 209 217 233 236 228 199 238 217 271 170 329 3 287 298 233 261 81 72 61 64 47 196 276
331 327 321 321 309 298 206 164 157 143 188 263 252 216 206 208 205 209 204 196 190 192 217 181 234 229 206 235 250 203 142 65 354 347 275 314 341 295 224 124 59 36 36 217 215
10 355 353 0 53 90 115 126 136 112 105 293 266 204 195 197 209 206 208 199 184 165 59 238 260 241 224 221 222 165 152 350 329 254 263 285 286 322 85 13 138 20 6 62 225
28 33 29 66 92 99 112 120 35 67 105 113 140 160 160 170 205 209 204 196 197 185 136 303 298 295 268 237 188 236 266 278 317 316 317 220 225 317 53 75 337 335 7 34 270
38 35 50 87 106 113 130 113 102 113 66 112 141 143 145 178 184 197 199 172 281 218 153 146 253 202 228 245 222 209 151 278 276 280 269 289 307 276 80 58 131 303 28 20 147
38 29 69 98 110 111 65 49 164 119 100 85 117 139 184 206 168 128 177 195 195 221 182 157 225 275 265 238 232 229 204 210 254 318 294 286 296 305 61 63 0 316 346 351 150
44 52 68 102 109 102 75 149 114 141 137 105 123 187 188 180 132 139 222 243 236 242 207 205 161 263 320 244 188 252 231 158 271 280 307 317 303 337 31 317 308 301 246 192 83
40 54 84 116 104 66 233 140 113 158 171 147 143 130 136 181 146 190 214 245 236 228 206 199 172 198 279 194 190 192 220 236 283 284 249 326 345 322 250 286 294 288 285 340 326
177 98 115 139 81 309 265 227 221 180 189 179 190 183 194 177 182 179 240 243 247 229 212 190 151 153 250 295 277 214 215 208 204 316 309 252 266 275 262 277 288 284 278 274 291
218 127 198 198 143 121 255 183 297 225 234 228 219 216 214 225 202 214 224 260 228 227 211 193 159 177 275 224 176 263 210 224 195 190 322 277 256 89 261 267 278 280 272 260 261
229 215 218 216 220 210 207 214 224 240 219 223 231 229 217 166 257 245 212 258 224 221 207 178 183 235 263 328 165 174 215 228 243 213 266 294 281 290 276 275 265 278 270 260 255
302 245 240 241 248 242 255 239 244 247 229 243 231 246 234 224 201 209 213 228 174 256 221 190 202 242 226 202 258 223 236 246 261 261 270 274 279 277 279 280 281 276 265 256 253
3 334 255 248 247 249 273 269 266 254 246 246 242 239 240 270 247 245 236 235 231 240 222 211 193 200 217 248 253 265 269 241 256 266 256 250 254 255 272 284 273 263 263 258 257
Height
5931 5931 5930 5930 5929 5929 5928 5927 5926 5925 5925 5924 5922 5921 5919 5918 5917 5915 5914 5912 5910 5906 5905 5905 5903 5899 5898 5898 5894 5894 5895 5899 5899 5900 5901 5903 5901 5900 5900 5899 5900 5898 5898 5898 5899
5930 5930 5929 5929 5928 5928 5927 5926 5926 5925 5924 5924 5923 5922 5920 5919 5918 5917 5916 5913 5911 5908 5906 5907 5903 5901 5886 5889 5897 5905 5902 5900 5901 5900 5902 5903 5903 5903 5903 5902 5900 5900 5899 5900 5902
5928 5928 5928 5927 5927 5927 5926 5926 5925 5924 5924 5923 5922 5922 5921 5919 5919 5918 5917 5915 5913 5911 5909 5907 5904 5900 5885 5897 5904 5903 5898 5896 5906 5905 5906 5907 5907 5910 5905 5904 5901 5901 5901 5905 5906
5926 5926 5926 5925 5925 5925 5925 5924 5924 5923 5923 5922 5922 5921 5920 5920 5921 5919 5918 5917 5916 5914 5912 5910 5905 5911 5905 5905 5908 5909 5910 5911 5910 5909 5910 5911 5910 5910 5908 5907 5906 5904 5904 5906 5909
5923 5923 5923 5923 5923 5923 5922 5922 5922 5921 5921 5921 5920 5920 5919 5920 5920 5920 5919 5918 5917 5917 5916 5913 5915 5912 5913 5917 5915 5916 5917 5917 5915 5914 5914 5913 5913 5912 5910 5910 5910 5909 5908 5910 5913
5920 5920 5920 5920 5920 5919 5920 5919 5919 5919 5919 5919 5918 5918 5918 5918 5919 5919 5919 5919 5918 5919 5919 5917 5918 5919 5919 5924 5922 5922 5919 5918 5917 5917 5915 5914 5913 5914 5913 5913 5913 5913 5913 5914 5916
5916 5916 5915 5915 5915 5915 5915 5916 5915 5915 5915 5915 5916 5916 5916 5917 5917 5918 5919 5919 5919 5920 5921 5921 5922 5923 5918 5925 5927 5923 5920 5922 5918 5918 5917 5916 5915 5915 5915 5915 5916 5917 5917 5918 5920
5912 5911 5910 5910 5910 5910 5910 5910 5910 5910 5911 5912 5912 5913 5914 5915 5915 5916 5917 5918 5919 5920 5922 5924 5924 5925 5926 5923 5924 5923 5924 5921 5921 5919 5919 5921 5921 5918 5917 5917 5919 5920 5920 5921 5922
5906 5906 5905 5904 5904 5904 5904 5904 5904 5904 5905 5907 5908 5910 5912 5913 5913 5915 5916 5917 5919 5920 5922 5925 5926 5927 5922 5923 5925 5927 5925 5926 5924 5921 5923 5923 5921 5922 5920 5918 5921 5923 5923 5923 5925
5900 5899 5898 5897 5896 5896 5896 5896 5897 5898 5899 5901 5903 5907 5909 5911 5911 5913 5914 5916 5918 5920 5922 5925 5927 5928 5917 5919 5931 5934 5940 5935 5926 5926 5921 5914 5913 5926 5922 5923 5924 5925 5926 5926 5927
5894 5893 5892 5891 5890 5889 5889 5890 5891 5892 5894 5896 5899 5900 5906 5907 5909 5911 5912 5914 5916 5919 5921 5924 5926 5926 5913 5922 5936 5937 5939 5937 5932 5930 5927 5929 5931 5927 5925 5925 5925 5927 5927 5928 5928
5888 5888 5887 5886 5885 5885 5884 5884 5885 5887 5888 5891 5894 5897 5901 5903 5907 5909 5911 5913 5915 5918 5920 5923 5926 5923 5925 5930 5937 5939 5942 5939 5938 5931 5918 5923 5931 5929 5927 5927 5928 5928 5929 5929 5930
5885 5884 5884 5883 5882 5880 5879 5879 5879 5881 5883 5887 5890 5893 5897 5901 5904 5907 5910 5911 5914 5916 5919 5923 5931 5924 5929 5935 5937 5940 5940 5937 5939 5934 5930 5931 5932 5932 5929 5928 5928 5928 5928 5929 5930
5882 5881 5881 5880 5879 5876 5874 5874 5876 5878 5881 5884 5887 5890 5895 5899 5902 5905 5908 5911 5914 5916 5919 5922 5927 5929 5931 5932 5935 5939 5934 5935 5937 5936 5930 5931 5933 5934 5931 5927 5927 5927 5927 5929 5930
5879 5879 5878 5875 5873 5871 5871 5872 5875 5879 5883 5882 5885 5888 5893 5898 5901 5903 5907 5910 5912 5917 5920 5926 5928 5929 5927 5930 5933 5933 5931 5934 5937 5936 5938 5925 5928 5931 5932 5925 5925 5926 5927 5928 5929
5878 5877 5875 5872 5869 5869 5869 5871 5876 5881 5884 5882 5884 5887 5892 5895 5899 5901 5905 5909 5912 5914 5918 5922 5924 5925 5926 5931 5929 5931 5934 5935 5936 5937 5938 5931 5926 5931 5925 5915 5921 5925 5927 5927 5930
5878 5876 5873 5871 5870 5869 5871 5875 5879 5882 5883 5884 5883 5887 5891 5896 5900 5902 5906 5910 5913 5917 5920 5921 5922 5923 5924 5925 5928 5931 5933 5934 5938 5940 5940 5932 5929 5919 5920 5904 5899 5926 5929 5927 5929
5878 5877 5876 5874 5874 5874 5877 5881 5879 5885 5888 5888 5885 5888 5893 5899 5903 5903 5906 5909 5912 5916 5921 5925 5927 5925 5925 5925 5928 5933 5936 5937 5936 5938 5936 5927 5920 5925 5906 5920 5922 5929 5928 5927 5927
5879 5879 5878 5878 5877 5879 5879 5880 5884 5887 5890 5892 5891 5894 5898 5901 5905 5905 5908 5912 5916 5916 5919 5925 5927 5925 5925 5925 5927 5929 5933 5936 5935 5940 5938 5924 5926 5924 5913 5933 5930 5930 5928 5925 5925
5882 5881 5880 5880 5881 5882 5883 5885 5886 5886 5891 5896 5898 5900 5903 5903 5904 5908 5910 5912 5913 5912 5914 5919 5925 5923 5923 5923 5925 5926 5930 5932 5937 5938 5930 5929 5928 5924 5926 5933 5935 5931 5929 5926 5923
5884 5884 5882 5883 5884 5885 5886 5888 5887 5888 5888 5882 5891 5899 5904 5904 5907 5910 5911 5907 5909 5909 5912 5915 5921 5925 5922 5923 5925 5928 5930 5932 5934 5937 5936 5924 5926 5929 5927 5933 5934 5935 5934 5903 5927
5885 5883 5885 5886 5887 5887 5890 5889 5889 5891 5890 5891 5892 5894 5899 5903 5907 5912 5905 5901 5906 5907 5910 5914 5918 5924 5927 5925 5926 5928 5931 5934 5936 5934 5934 5921 5923 5918 5928 5931 5932 5933 5931 5902 5928
5886 5885 5887 5887 5886 5893 5889 5888 5888 5888 5889 5891 5892 5893 5895 5900 5903 5904 5903 5901 5903 5904 5906 5909 5917 5923 5923 5925 5924 5925 5929 5931 5932 5933 5929 5930 5921 5914 5922 5926 5927 5928 5927 5928 5928
5886 5886 5887 5887 5887 5890 5889 5889 5889 5888 5888 5889 5890 5892 5894 5898 5899 5901 5900 5899 5900 5902 5905 5909 5912 5920 5920 5917 5919 5924 5926 5926 5927 5932 5929 5925 5912 5886 5916 5919 5922 5923 5923 5923 5924
5885 5885 5885 5885 5886 5886 5886 5887 5887 5886 5887 5888 5889 5890 5890 5894 5898 5898 5900 5898 5899 5900 5903 5907 5912 5916 5915 5913 5916 5918 5924 5924 5925 5926 5927 5918 5906 5906 5912 5915 5918 5920 5921 5921 5922
5885 5885 5885 5885 5885 5885 5885 5885 5885 5885 5886 5885 5886 5886 5888 5889 5889 5890 5892 5894 5895 5896 5899 5902 5907 5910 5913 5914 5917 5917 5920 5921 5923 5922 5922 5922 5907 5900 5906 5912 5915 5915 5915 5917 5918
5884 5884 5884 5884 5884 5884 5883 5883 5883 5883 5884 5884 5884 5884 5885 5886 5888 5888 5890 5891 5893 5894 5896 5898 5900 5904 5907 5912 5914 5916 5915 5917 5918 5919 5917 5915 5907 5902 5907 5911 5909 5910 5910 5910 5911